Location: Unspecified
(0.0000°N, 0.0000°E)
Time: 16:36:56
(UTC+00:00)

Envisat - Pass Details

Date: 15 August 2017
Orbit: 764 x 766 km, 98.2° (Epoch: 18 December)

Event Time Altitude Azimuth Distance (km) Brightness Sun altitude
Exits shadow 19:35:05 11° 34° (NE) 2,253 5.2 -22.0°
Drops below altitude 10° 19:35:13 10° 33° (NNE) 2,292 5.3 -22.0°
Sets 19:38:07 0° 16° (NNE) 3,214 6.2 -22.7°
